[[{"header":{"parameterUnit":"m.s-1","parameterCategory":1,"la1":30.2991,"la2":30.254,"lo1":-89.0895,"lo2":-89.0444,"dy":0.0017,"dx":0.0017,"nx":28,"ny":28,"refTime":"2024-04-15T09:00:00:Z","depth":0,"parameterNumber":2,"parameterNumberName":"U-component_of_WINDS"},"data":[0,0,0,0,0,0,0,0,0,0,0,0,0,0,0,0,0,0,0,0,0,0,0,0,0,0,0,0,0,0,0,0,0,0,0,0,0,0,0,0,0,0,0,0,0,0,0,0,0,0,0,0,0,0,0,0,0,0,-3.5802,-3.5802,0,-3.5868,-3.5868,-3.5869,-3.5832,-3.583,-3.5828,-3.5826,-3.5893,-3.5896,-3.59,0,0,0,0,0,0,0,0,0,0,0,0,0,-3.5644,-3.5647,-3.5802,-3.5803,-3.5803,-3.5867,-3.5868,-3.5869,-3.5832,-3.583,-3.5827,-3.5825,-3.5892,-3.5896,-3.59,0,0,0,0,0,0,0,0,0,0,0,0,0,-3.5711,-3.5648,-3.5802,-3.5792,-3.5792,-3.5867,-3.5868,-3.587,-3.5832,-3.583,-3.5827,-3.5824,-3.589,-3.5895,-3.5901,-3.5988,0,0,-3.5917,-3.5919,0,0,0,0,0,0,0,0,-3.5707,-3.5717,-3.5793,-3.5793,-3.5793,-3.5839,-3.5837,-3.5909,-3.5833,-3.5817,-3.5826,-3.5823,-3.5877,-3.5883,-3.5901,-3.5991,-3.5994,-3.5917,-3.592,-3.5922,-3.5924,0,0,0,0,0,0,0,-3.5703,-3.5714,-3.5828,-3.5794,-3.5794,-3.5785,-3.5792,-3.5851,-3.5862,-3.5818,-3.5816,-3.5824,-3.5876,-3.5897,-3.5903,-3.5995,-3.5917,-3.5921,-3.5925,-3.5927,-3.6159,-3.6162,0,0,0,0,0,0,-3.5699,-3.571,-3.5826,-3.583,-3.5743,-3.579,-3.5798,-3.5827,-3.5861,-3.5864,-3.5826,-3.5822,-3.5889,-3.5897,-3.5905,-3.6009,-3.5922,-3.5927,-3.593,-3.6156,-3.616,-3.6163,0,0,0,0,0,0,-3.5696,-3.5709,-3.5823,-3.5769,-3.5783,-3.5796,-3.5829,-3.583,-3.5849,-3.5867,-3.5869,-3.5845,-3.5887,-3.5898,-3.5968,-3.6011,-3.593,-3.5934,-3.6153,-3.6158,-3.6162,-3.6218,0,0,0,0,0,0,-3.5691,-3.5709,-3.5742,-3.577,-3.5786,-3.5885,-3.5832,-3.5833,-3.5859,-3.5854,-3.5885,-3.5887,-3.5886,-3.596,-3.5973,-3.6016,-3.5938,-3.6149,-3.6155,-3.616,-3.6212,-3.6224,-3.6234,0,0,0,0,0,-3.5686,-3.5755,-3.5744,-3.5758,-3.5828,-3.5887,-3.5896,-3.5893,-3.5862,-3.5896,-3.5907,-3.5886,-3.6005,-3.5968,-3.5982,-3.6027,-3.6146,-3.6153,-3.616,-3.6207,-3.6221,-3.6233,0,0,0,0,0,0,-3.573,-3.5758,-3.5746,-3.5827,-3.5855,-3.5881,-3.5923,-3.5908,-3.5946,-3.5939,-3.5934,-3.5941,-3.6014,-3.6028,-3.5986,-3.6114,-3.607,-3.608,-3.6102,-3.6115,-3.6126,-3.612,-3.5943,0,0,0,0,0,-3.5749,-3.5795,-3.5817,-3.5886,-3.5901,-3.591,-3.5935,-3.5931,-3.596,-3.5971,-3.5988,-3.6017,-3.606,-3.6089,-3.613,-3.6215,-3.6221,-3.6253,-3.6264,-3.6273,-3.6281,-3.6326,-3.6341,-3.6186,-3.6186,-3.6186,0,0,-3.5789,-3.581,-3.584,-3.5896,-3.5917,-3.5964,-3.592,-3.5972,-3.6007,-3.5979,-3.6046,-3.606,-3.6091,-3.6169,-3.6204,-3.6183,-3.6325,-3.6282,-3.6288,-3.6292,-3.6335,-3.6349,-3.6362,-3.6191,-3.619,-3.6189,0,0,-3.5886,-3.5907,-3.5966,-3.5989,-3.6022,-3.6028,-3.6042,-3.6071,-3.6079,-3.6146,-3.6126,-3.6168,-3.6243,-3.6266,-3.6288,-3.6396,-3.6377,-3.6409,-3.6465,-3.6509,-3.6521,-3.6532,-3.6569,-3.6582,-3.6418,-3.6418,-3.6418,0,-3.5931,-3.6002,-3.5999,-3.6052,-3.6077,-3.6056,-3.6116,-3.6138,-3.6183,-3.62,-3.6176,-3.6271,-3.6291,-3.6373,-3.6399,-3.6418,-3.6434,-3.6405,-3.652,-3.6531,-3.654,-3.6576,-3.659,-3.6421,-3.6421,-3.6421,-3.642,0,-3.6055,-3.6105,-3.6149,-3.6193,-3.6223,-3.628,-3.6286,-3.6317,-3.631,-3.6319,-3.6387,-3.6411,-3.6456,-3.6476,-3.647,-3.6558,-3.6544,-3.652,-3.6476,-3.6559,-3.6592,-3.6605,-3.6427,-3.6425,-3.6424,-3.6423,0,0,-3.618,-3.6222,-3.6238,-3.6258,-3.6294,-3.6332,-3.6388,-3.6433,-3.6459,-3.6492,-3.6538,-3.6603,-3.6581,-3.6606,-3.6603,-3.6642,-3.6725,-3.6614,-3.6614,-3.6632,-3.6822,-3.6838,-3.6854,-3.6714,-3.6716,-3.6719,-3.6819,0,-3.6277,-3.6375,-3.6374,-3.6464,-3.651,-3.6491,-3.6539,-3.6567,-3.6576,-3.6616,-3.6627,-3.6672,-3.6641,-3.6656,-3.6694,-3.6706,-3.6762,-3.67,-3.6756,-3.6758,-3.6746,-3.6871,-3.6888,-3.6982,-3.6832,-3.6834,-3.6836,0,-3.6404,-3.6441,-3.6535,-3.6565,-3.6584,-3.6627,-3.6668,-3.6707,-3.6738,-3.6742,-3.6771,-3.6762,-3.6819,-3.6775,-3.6853,-3.681,-3.6833,-3.6843,-3.6847,-3.685,-3.68,-3.6876,-3.7012,-3.7025,-3.6856,-3.6855,-3.6853,0,-3.6483,-3.6557,-3.6623,-3.664,-3.6677,-3.6708,-3.6724,-3.6752,-3.6779,-3.6816,-3.6833,-3.6876,-3.6899,-3.6932,-3.6934,-3.6902,-3.7013,-3.6969,-3.7017,-3.7017,-3.7039,-3.7037,-3.7178,-3.7058,-3.7057,-3.7057,-3.7057,0,-3.6592,-3.665,-3.6659,-3.6699,-3.6764,-3.6764,-3.6828,-3.6842,-3.6867,-3.691,-3.6896,-3.6937,-3.6939,-3.698,-3.6983,-3.7046,-3.7057,-3.7062,-3.7061,-3.7062,-3.7061,-3.7075,-3.7068,-3.7061,-3.706,-3.7059,-3.7059,0,-3.669,-3.6699,-3.6769,-3.6798,-3.6807,-3.6853,-3.6878,-3.6917,-3.6926,-3.698,-3.6992,-3.7007,-3.7055,-3.7061,-3.7118,-3.7119,-3.7195,-3.7189,-3.7185,-3.7183,-3.723,-3.7225,-3.7383,-3.7404,-3.7272,-3.7273,-3.7274,0,-3.6758,-3.6802,-3.6836,-3.6864,-3.6882,-3.6927,-3.6955,-3.6957,-3.6986,-3.7025,-3.7059,-3.7106,-3.7143,-3.7221,-3.7236,-3.7279,-3.7272,-3.7325,-3.7278,-3.7277,-3.7271,-3.7268,-3.7272,-3.7333,-3.7335,-3.7336,-3.7337,0,-3.6876,-3.6878,-3.6919,-3.6961,-3.6995,-3.7028,-3.706,-3.7083,-3.7089,-3.7123,-3.7172,-3.7201,-3.7259,-3.7305,-3.7348,-3.7365,-3.7352,-3.7352,-3.7365,-3.7364,-3.7359,-3.7361,-3.7207,-3.7347,-3.7346,-3.7346,-3.7345,-3.7345,-3.696,-3.6999,-3.7029,-3.7074,-3.7098,-3.7128,-3.7166,-3.718,-3.7221,-3.7268,-3.7267,-3.7321,-3.7351,-3.7407,-3.7427,-3.7469,-3.7452,-3.7471,-3.7475,-3.748,-3.7483,-3.7355,-3.7477,-3.7477,-3.7477,-3.7476,-3.7476,0,-3.7077,-3.7095,-3.7137,-3.7182,-3.7218,-3.7204,-3.7238,-3.7269,-3.7316,-3.7346,-3.7383,-3.744,-3.7485,-3.7504,-3.7549,-3.7578,-3.7574,-3.759,-3.7587,-3.7591,-3.7497,-3.7481,-3.7593,-3.7593,-3.7593,-3.7593,-3.7593,-3.7593,-3.7141,-3.7205,-3.7211,-3.7287,-3.7306,-3.7358,-3.7379,-3.7406,-3.743,-3.7493,-3.7531,-3.7544,-3.7569,-3.7615,-3.7656,-3.7661,-3.7677,-3.7696,-3.7697,-3.7609,-3.7597,-3.7586,-3.757,-3.7699,-3.77,-3.7787,-3.7788,-3.7788]},{"header":{"parameterUnit":"m.s-1","parameterCategory":1,"la1":30.2991,"la2":30.254,"lo1":-89.0895,"lo2":-89.0444,"dy":0.0017,"dx":0.0017,"nx":28,"ny":28,"refTime":"2024-04-15T09:00:00:Z","depth":0,"parameterNumber":3,"parameterNumberName":"V-component_of_WINDS"},"data":[0,0,0,0,0,0,0,0,0,0,0,0,0,0,0,0,0,0,0,0,0,0,0,0,0,0,0,0,0,0,0,0,0,0,0,0,0,0,0,0,0,0,0,0,0,0,0,0,0,0,0,0,0,0,0,0,0,0,3.6936,3.6936,0,3.6928,3.6928,3.6928,3.6873,3.6871,3.687,3.6869,3.6863,3.6864,3.6865,0,0,0,0,0,0,0,0,0,0,0,0,0,3.6906,3.6907,3.6936,3.6936,3.6936,3.6928,3.6928,3.6928,3.6873,3.6871,3.687,3.6868,3.6862,3.6864,3.6865,0,0,0,0,0,0,0,0,0,0,0,0,0,3.6911,3.6907,3.6936,3.6907,3.6904,3.6928,3.6928,3.6928,3.6873,3.6871,3.6869,3.6867,3.6862,3.6864,3.6865,3.6916,0,0,3.687,3.6871,0,0,0,0,0,0,0,0,3.691,3.6912,3.6911,3.6909,3.6906,3.6899,3.6915,3.6924,3.6874,3.6885,3.6869,3.6866,3.6877,3.6877,3.688,3.6916,3.6916,3.687,3.6871,3.6872,3.6873,0,0,0,0,0,0,0,3.691,3.6912,3.6933,3.6912,3.6908,3.6896,3.6894,3.6917,3.6893,3.6884,3.688,3.688,3.6875,3.6879,3.688,3.6916,3.687,3.6872,3.6873,3.6874,3.6995,3.6997,0,0,0,0,0,0,3.6913,3.6912,3.6933,3.6933,3.6903,3.6898,3.6896,3.6904,3.6892,3.6888,3.6881,3.6877,3.6877,3.6878,3.6879,3.6939,3.6872,3.6874,3.6875,3.6993,3.6996,3.6998,0,0,0,0,0,0,3.6913,3.6916,3.6933,3.6921,3.6922,3.6901,3.6909,3.6904,3.6908,3.689,3.6886,3.6889,3.6875,3.6877,3.6908,3.6938,3.6874,3.6876,3.6991,3.6994,3.6997,3.7059,0,0,0,0,0,0,3.6912,3.6916,3.6934,3.6922,3.6923,3.6961,3.6911,3.6906,3.6911,3.6905,3.6897,3.6893,3.6874,3.6906,3.6909,3.6939,3.6877,3.6988,3.6992,3.6996,3.7054,3.7064,3.7072,0,0,0,0,0,3.6912,3.6952,3.6935,3.6938,3.6945,3.6963,3.6964,3.694,3.6914,3.6932,3.6921,3.6893,3.6934,3.6909,3.6913,3.6944,3.6986,3.6991,3.6996,3.705,3.7062,3.7072,0,0,0,0,0,0,3.6969,3.695,3.6931,3.6969,3.6968,3.6954,3.6976,3.6953,3.696,3.6955,3.6926,3.6924,3.696,3.6955,3.6927,3.6994,3.6955,3.6961,3.6995,3.7007,3.7016,3.7016,3.6879,0,0,0,0,0,3.6986,3.7,3.6984,3.7018,3.7019,3.6998,3.7005,3.6987,3.6985,3.6984,3.6975,3.6975,3.6988,3.6997,3.7008,3.7054,3.7051,3.7077,3.7086,3.7094,3.7099,3.7124,3.7135,3.7015,3.7015,3.7015,0,0,3.7021,3.7012,3.7023,3.703,3.7027,3.7044,3.6998,3.7018,3.7031,3.6987,3.7016,3.701,3.7008,3.7047,3.7064,3.7044,3.7132,3.71,3.7106,3.7107,3.713,3.7142,3.7152,3.7018,3.7018,3.7017,0,0,3.7093,3.7088,3.7117,3.7115,3.7112,3.7098,3.7105,3.7095,3.7089,3.7117,3.7086,3.7102,3.7124,3.7124,3.7128,3.7203,3.7179,3.7208,3.7256,3.728,3.729,3.7298,3.7326,3.7336,3.7214,3.7214,3.7214,0,3.7137,3.716,3.7135,3.7157,3.7161,3.7124,3.7153,3.7153,3.7154,3.7159,3.7137,3.7165,3.7161,3.72,3.7219,3.7223,3.7231,3.7208,3.729,3.7298,3.7306,3.7332,3.7342,3.7217,3.7217,3.7217,3.7216,0,3.7215,3.7233,3.7257,3.7258,3.7265,3.7291,3.7271,3.7281,3.7264,3.7253,3.7283,3.7278,3.7287,3.7295,3.7278,3.7333,3.7321,3.7295,3.7256,3.7321,3.7345,3.7355,3.7222,3.7221,3.722,3.7219,0,0,3.7321,3.731,3.7319,3.732,3.7314,3.7327,3.7353,3.7362,3.7372,3.7375,3.7396,3.7417,3.7394,3.7398,3.7381,3.7403,3.7464,3.7374,3.7374,3.7391,3.7525,3.7544,3.7555,3.7448,3.745,3.7451,3.7525,0,3.7391,3.7432,3.7411,3.7455,3.7472,3.7437,3.746,3.746,3.7451,3.7465,3.7455,3.7471,3.7439,3.7441,3.7461,3.7452,3.749,3.7447,3.7468,3.7469,3.7469,3.7568,3.7587,3.7657,3.7534,3.7536,3.7537,0,3.7477,3.7483,3.7529,3.7522,3.7528,3.7549,3.7556,3.757,3.757,3.7562,3.7568,3.7546,3.7572,3.7534,3.757,3.7541,3.7549,3.7546,3.7548,3.7549,3.7506,3.7571,3.7679,3.7689,3.7551,3.755,3.7549,0,3.755,3.757,3.76,3.7602,3.7595,3.761,3.7608,3.7606,3.7614,3.7621,3.7626,3.7637,3.7642,3.7652,3.7634,3.7608,3.7673,3.7634,3.7668,3.7669,3.7682,3.7682,3.7793,3.7689,3.7688,3.7688,3.7688,0,3.7629,3.7659,3.7633,3.7652,3.7685,3.7661,3.7695,3.7689,3.7688,3.7706,3.7678,3.7696,3.7672,3.7688,3.7675,3.7707,3.771,3.7705,3.7701,3.7707,3.7708,3.7711,3.7706,3.7691,3.769,3.769,3.7689,0,3.7715,3.7699,3.773,3.7721,3.772,3.7745,3.7738,3.7755,3.7746,3.7769,3.7773,3.7758,3.7776,3.776,3.7776,3.7768,3.7811,3.78,3.7811,3.7807,3.7843,3.784,3.796,3.7974,3.7861,3.7862,3.7863,0,3.7767,3.7789,3.7783,3.7793,3.7792,3.7808,3.7816,3.7795,3.7804,3.7807,3.7825,3.7841,3.7851,3.7881,3.7872,3.7886,3.7875,3.7916,3.7877,3.7883,3.7876,3.7874,3.7877,3.7924,3.7925,3.7926,3.7927,0,3.786,3.7851,3.7863,3.7873,3.7883,3.789,3.7895,3.7905,3.7883,3.7896,3.7913,3.7922,3.7939,3.7955,3.7966,3.7965,3.7943,3.794,3.7949,3.7955,3.796,3.7958,3.7832,3.7937,3.7936,3.7935,3.7935,3.7934,3.793,3.7949,3.7947,3.7962,3.7964,3.797,3.7986,3.7979,3.7993,3.8005,3.7992,3.8014,3.8016,3.8028,3.803,3.8048,3.803,3.8043,3.8046,3.8049,3.8055,3.7958,3.805,3.8049,3.8049,3.8049,3.8048,0,3.8022,3.802,3.8034,3.8041,3.8054,3.8032,3.8037,3.8049,3.8068,3.8071,3.8083,3.8104,3.812,3.8114,3.8128,3.8143,3.8134,3.8148,3.8146,3.8147,3.8069,3.806,3.8155,3.8155,3.8155,3.8155,3.8155,3.8155,3.8071,3.8101,3.8093,3.8125,3.8123,3.8144,3.8148,3.8154,3.8157,3.8181,3.8194,3.819,3.819,3.8204,3.8218,3.8216,3.8223,3.8241,3.8235,3.8162,3.8152,3.8142,3.8133,3.8242,3.8242,3.8311,3.8312,3.8312]}]]